Jackson, KY

12:39 PM EST on November 23, 2017 (GMT -0500)
Carroll

Weather History for KJKL - March, 2014

Change the Weather History Date:

Saturday, March 29, 2014

  Actual Average Record
Temperature  
Mean Temperature 45 °F 52 °F  
Max Temperature 57 °F 62 °F 84 °F (1998)
Min Temperature 32 °F 41 °F 23 °F (2015)
Degree Days  
Heating Degree Days 20 14  
Month to date heating degree days 631 527  
Since 1 July heating degree days 4232 3827  
Cooling Degree Days 0 1  
Month to date cooling degree days 0 1  
Year to date cooling degree days 0 1  
Moisture  
Dew Point 43 °F    
Average Humidity 87    
Maximum Humidity 96    
Minimum Humidity 77    
Precipitation  
Precipitation 1.52 in 0.14 in 1.52 in (2014)
Month to date precipitation 5.47 3.86  
Year to date precipitation 13.09 11.22  
Snow  
Snow 1.00 in 0.00 in 2.50 in (1991)
Month to date snowfall 10.6 2.8  
Since 1 July snowfall 37.6 22.4  
Snow Depth 0.00 in    
Sea Level Pressure  
Sea Level Pressure 29.85 in    
Wind  
Wind Speed 7 mph (North)    
Max Wind Speed 16 mph    
Max Gust Speed 26 mph    
Visibility 3 miles    
Events Fog , Rain , Snow    
T = Trace of Precipitation, MM = Missing Value Source: NWS Daily Summary

Daily Weather History Graph

Daily Weather History Graph

Search for Another Location

Airport or City:

Trip Planner

Search our weather history database for the weather conditions in past years. The results will help you decide how hot, cold, wet, or windy it might be!

Date:

Astronomy

Mar. 29, 2014 Rise Set
Actual Time 7:23 AM EDT 7:53 PM EDT
Civil Twilight 6:56 AM EDT 8:19 PM EDT
Nautical Twilight 6:26 AM EDT 8:50 PM EDT
Astronomical Twilight 5:54 AM EDT 9:22 PM EDT
Moon 6:29 AM EDT (3/29) 6:58 PM EDT (3/29)
Length of Visible Light 13h 22m
Length of Day
12h 30m
Waning Crescent, 2% of the Moon is Illuminated
Mar 29
Waning Crescent
Mar 30
New
Apr 7
First Quarter
Apr 15
Full
Apr 22
Last Quarter

Hourly Weather History & Observations

Time (EDT) Temp. Windchill Dew Point Humidity Pressure Visibility Wind Dir Wind Speed Gust Speed Precip Events Conditions
12:53 AM 57.0 °F - 50.0 °F 77% 30.03 in 10.0 mi Calm Calm - N/A   Partly Cloudy
1:53 AM 57.0 °F - 50.0 °F 77% 30.00 in 10.0 mi NE 3.5 mph - N/A   Overcast
2:53 AM 55.0 °F - 48.9 °F 80% 29.96 in 10.0 mi NE 5.8 mph - N/A   Scattered Clouds
3:53 AM 53.1 °F - 50.0 °F 89% 29.93 in 10.0 mi Variable 4.6 mph - N/A   Clear
4:53 AM 52.0 °F - 50.0 °F 93% 29.91 in 10.0 mi NE 5.8 mph - N/A   Overcast
5:20 AM 52.0 °F - 50.0 °F 93% 29.92 in 10.0 mi NE 6.9 mph - N/A   Overcast
5:53 AM 51.1 °F - 48.9 °F 92% 29.89 in 8.0 mi NE 5.8 mph - N/A   Scattered Clouds
6:53 AM 50.0 °F - 46.9 °F 89% 29.88 in 10.0 mi NE 5.8 mph - N/A   Overcast
7:31 AM 50.0 °F - 46.0 °F 86% 29.89 in 0.8 mi Variable 4.6 mph - 0.00 in Rain Light Rain
7:53 AM 50.0 °F - 46.0 °F 86% 29.87 in 0.2 mi Variable 3.5 mph - 0.00 in Fog Fog
8:53 AM 51.1 °F - 46.9 °F 86% 29.85 in 0.2 mi Variable 5.8 mph - N/A Fog Fog
9:53 AM 51.1 °F - 48.0 °F 89% 29.83 in 0.2 mi NE 3.5 mph - 0.01 in Fog , Rain Light Rain
10:09 AM 51.1 °F - 48.0 °F 89% 29.83 in 1.8 mi NE 3.5 mph - 0.00 in   Overcast
10:16 AM 51.1 °F - 48.9 °F 92% 29.82 in 3.0 mi NE 3.5 mph - 0.00 in Rain Light Rain
10:40 AM 51.1 °F - 48.9 °F 92% 29.83 in 1.8 mi Calm Calm - 0.03 in Rain Rain
10:53 AM 51.1 °F - 48.9 °F 92% 29.83 in 1.0 mi Calm Calm - 0.08 in Rain Rain
11:01 AM 51.1 °F - 48.9 °F 92% 29.84 in 0.2 mi Calm Calm - 0.03 in Fog , Rain Heavy Rain
11:17 AM 51.1 °F - 48.9 °F 92% 29.83 in 0.2 mi NNE 3.5 mph - 0.15 in Fog , Rain Rain
11:29 AM 51.1 °F - 48.9 °F 92% 29.82 in 0.2 mi NE 3.5 mph - 0.20 in Fog , Rain Heavy Rain
11:53 AM 51.1 °F - 48.9 °F 92% 29.78 in 0.2 mi NNE 3.5 mph - 0.35 in Fog , Rain Heavy Rain
12:04 PM 51.1 °F - 48.9 °F 92% 29.79 in 0.2 mi NE 3.5 mph - 0.06 in Fog , Rain Rain
12:21 PM 51.1 °F - 50.0 °F 96% 29.78 in 0.2 mi Variable 3.5 mph - 0.07 in Fog , Rain Light Rain
12:27 PM 51.1 °F - 50.0 °F 96% 29.78 in 0.2 mi Calm Calm - 0.07 in Fog , Rain Light Rain
12:53 PM 52.0 °F - 50.0 °F 93% 29.76 in 0.2 mi NNE 3.5 mph - 0.14 in Fog , Rain Heavy Rain
1:31 PM 50.0 °F - 48.0 °F 93% 29.74 in 2.0 mi North 8.1 mph - 0.11 in Rain Light Rain
1:35 PM 48.9 °F - 46.9 °F 93% 29.74 in 0.8 mi NNE 8.1 mph - 0.12 in Rain Light Rain
1:53 PM 48.0 °F - 45.0 °F 89% 29.73 in 1.0 mi NNE 8.1 mph - 0.15 in Rain Rain
2:06 PM 46.9 °F - 45.0 °F 93% 29.73 in 0.2 mi Variable 6.9 mph - 0.06 in Fog , Rain Rain
2:23 PM 46.0 °F - 44.1 °F 93% 29.73 in 1.0 mi North - - 0.10 in Rain Rain
2:33 PM 45.0 °F 39.3 °F 43.0 °F 93% 29.74 in 2.0 mi NW 11.5 mph 16.1 mph 0.14 in Rain Heavy Rain
2:38 PM 44.1 °F 38.1 °F 42.1 °F 93% 29.74 in 1.5 mi NNW 11.5 mph 19.6 mph 0.17 in Rain Heavy Rain
2:53 PM 44.1 °F 40.1 °F 42.1 °F 93% 29.74 in 2.0 mi Variable 6.9 mph - 0.25 in Rain Rain
3:03 PM 43.0 °F 37.7 °F 41.0 °F 93% 29.75 in 0.8 mi NW 9.2 mph 17.3 mph 0.03 in Rain Rain
3:13 PM 42.1 °F 35.7 °F 39.9 °F 92% 29.75 in 2.0 mi NNW 11.5 mph 18.4 mph 0.05 in Rain Rain
3:22 PM 41.0 °F 34.3 °F 39.0 °F 93% 29.76 in 3.0 mi NW 11.5 mph 19.6 mph 0.08 in Rain Rain
3:53 PM 41.0 °F 35.2 °F 39.0 °F 93% 29.77 in 4.0 mi NW 9.2 mph - 0.15 in Rain Rain
4:06 PM 41.0 °F 37.1 °F 39.0 °F 93% 29.77 in 4.0 mi NW 5.8 mph 17.3 mph 0.03 in Rain Rain
4:30 PM 41.0 °F 35.8 °F 37.9 °F 89% 29.78 in 6.0 mi WNW 8.1 mph - 0.06 in Rain Light Rain
4:42 PM 39.9 °F 34.5 °F 37.9 °F 93% 29.79 in 5.0 mi WNW 8.1 mph - 0.08 in Rain Rain
4:53 PM 39.9 °F 32.9 °F 37.0 °F 89% 29.79 in 7.0 mi NW 11.5 mph 20.7 mph 0.09 in Rain Light Rain
5:53 PM 39.0 °F 33.4 °F 36.0 °F 89% 29.83 in 10.0 mi NW 8.1 mph - 0.05 in Rain Light Rain
6:53 PM 37.9 °F 31.5 °F 35.1 °F 89% 29.88 in 8.0 mi WNW 9.2 mph 19.6 mph 0.03 in Rain Light Rain
7:53 PM 36.0 °F 28.5 °F 33.1 °F 89% 29.92 in 7.0 mi NW 10.4 mph 19.6 mph 0.03 in Rain Light Rain
8:53 PM 35.1 °F 27.9 °F 32.0 °F 89% 29.96 in 6.0 mi NNW 9.2 mph 23.0 mph 0.03 in Snow Light Snow
9:41 PM 33.1 °F 23.9 °F 30.9 °F 92% 29.98 in 1.8 mi NW 12.7 mph 20.7 mph 0.01 in Snow Light Snow
9:49 PM 33.8 °F 25.3 °F 30.2 °F 87% 29.99 in 1.2 mi NW 11.5 mph 20.7 mph 0.02 in Snow Light Snow
9:53 PM 33.1 °F 25.5 °F 30.0 °F 89% 30.00 in 1.0 mi WNW 9.2 mph 20.7 mph 0.03 in Snow Light Snow
10:09 PM 33.1 °F 25.5 °F 30.0 °F 89% 30.00 in 1.2 mi NW 9.2 mph - 0.01 in Snow Light Snow
10:44 PM 32.0 °F 26.4 °F 30.0 °F 92% 30.00 in 1.2 mi Variable 5.8 mph 18.4 mph 0.03 in Snow Light Snow
10:53 PM 32.0 °F 24.8 °F 30.0 °F 92% 30.02 in 1.0 mi WNW 8.1 mph 18.4 mph 0.04 in Snow Light Snow
11:53 PM 32.0 °F 22.5 °F 30.0 °F 92% 30.03 in 1.0 mi NW 12.7 mph 18.4 mph 0.05 in Snow Light Snow